Wind_Speed
31 33 35 34 34 36 36 35 33 32 29 28 27 25 23 21 21 20 20 20 21 22 21 20 17 13 10 9 7 6 5 7
30 30 30 29 32 35 35 34 33 31 30 28 26 24 22 20 20 20 20 21 21 22 21 20 16 12 9 8 5 4 4 7
28 29 30 29 27 31 34 33 32 31 29 27 25 19 19 19 18 20 21 21 21 22 21 19 16 13 11 9 6 4 4 8
29 30 30 29 27 27 26 26 26 25 23 24 21 18 19 18 18 20 21 21 21 21 20 19 17 12 11 10 7 6 4 7
28 28 29 30 28 28 27 26 25 24 23 23 21 19 19 19 17 19 18 22 19 21 20 18 17 14 13 12 10 9 7 7
28 28 28 28 27 29 27 28 27 25 25 24 22 21 20 20 19 19 19 20 19 20 19 19 18 17 15 14 12 11 11 10
29 29 28 28 27 28 27 27 27 26 26 26 23 22 21 21 20 20 20 19 20 20 19 20 19 18 17 16 15 14 14 13
31 31 30 29 29 28 27 27 26 25 25 26 25 23 21 22 21 21 20 19 19 19 19 19 19 18 18 18 17 16 15 15
33 33 31 31 30 27 27 26 25 26 25 25 27 25 22 22 21 20 20 19 19 18 18 17 17 17 18 17 17 17 17 16
33 33 33 31 30 28 27 26 26 26 26 25 27 27 24 23 22 21 20 19 19 19 18 17 17 17 17 17 17 17 17 17
33 34 35 35 32 29 28 27 27 27 26 26 26 27 27 25 24 22 20 20 19 19 18 17 16 17 17 16 17 17 17 17
31 34 34 35 33 31 29 27 27 27 27 27 25 27 28 28 25 23 22 22 21 19 19 17 17 15 15 16 17 18 18 19
30 33 34 33 33 33 31 31 29 29 29 27 27 27 29 29 27 25 24 24 24 23 20 18 16 15 13 16 19 21 22 22
28 31 34 35 33 32 32 30 30 29 27 28 30 30 30 30 30 29 27 25 24 23 22 20 19 17 13 14 8 13 19 18
27 30 31 34 33 29 27 26 27 28 30 31 31 31 29 31 30 29 27 26 26 27 25 25 22 20 21 16 6 6 7 9
24 26 30 32 33 30 33 31 29 33 29 30 29 31 33 32 32 30 30 28 27 25 25 25 23 21 17 21 23 18 7 8
17 22 25 26 30 33 31 31 28 22 25 26 29 30 33 33 33 32 31 29 26 26 24 24 23 23 23 16 17 19 20 16
5 13 21 23 25 30 32 31 29 25 26 22 22 24 25 29 30 29 28 28 28 26 27 26 25 24 23 22 22 16 15 15
14 3 9 13 20 24 27 29 24 26 25 22 21 22 24 24 27 28 27 29 30 28 27 27 27 26 25 23 22 24 22 19
29 27 23 12 6 14 19 20 22 21 21 22 22 21 21 20 23 29 31 33 29 30 29 28 27 27 26 24 22 21 19 19
Wind_Direction
167 172 177 180 181 181 181 180 180 179 178 175 175 173 172 172 172 172 170 167 165 164 162 160 158 155 150 145 140 141 165 158
168 171 173 177 181 181 183 183 183 182 180 179 177 176 175 176 176 176 175 173 172 171 169 169 170 169 168 168 157 139 181 180
174 173 172 174 177 182 185 186 185 183 182 182 178 174 176 181 176 186 180 179 178 177 178 179 182 184 189 191 183 197 203 201
178 176 175 174 175 179 179 183 183 182 182 182 178 181 180 179 187 191 185 185 185 186 188 190 191 199 211 209 210 214 212 207
185 181 178 177 176 176 179 184 186 187 187 186 185 184 184 181 188 186 188 191 191 194 197 199 205 208 210 213 219 223 225 220
191 188 184 182 180 180 183 185 187 189 191 190 191 188 187 187 187 189 191 195 195 197 203 205 212 216 218 223 226 228 234 235
197 193 191 188 185 186 188 191 190 191 193 194 196 195 192 190 192 193 196 198 201 202 206 209 215 218 223 227 232 236 238 240
199 199 197 194 192 191 192 193 194 194 197 198 198 199 199 197 196 198 200 203 206 208 211 212 217 221 228 231 236 240 244 245
200 200 200 200 199 197 197 198 196 198 201 203 201 200 203 202 202 203 204 206 209 213 217 219 223 226 231 234 237 241 243 245
204 201 201 202 203 202 203 203 201 203 205 206 206 205 204 206 207 209 207 206 210 214 217 221 226 231 237 239 241 243 245 244
209 204 202 201 204 206 208 208 208 210 210 211 211 209 206 207 211 212 207 208 212 215 220 224 229 235 240 244 246 247 247 249
212 209 204 203 202 205 209 211 214 215 217 216 215 214 210 210 214 214 210 211 213 216 220 223 229 238 246 250 252 253 252 249
210 209 208 203 204 204 207 210 214 217 220 221 220 218 214 213 213 216 213 214 214 214 215 221 228 234 251 257 259 256 252 248
214 211 206 205 207 209 212 213 216 219 221 223 223 221 217 215 214 216 217 217 219 215 212 215 223 223 229 249 270 258 245 248
219 212 207 204 206 210 213 218 223 222 223 224 224 222 220 220 220 218 219 217 220 217 213 214 218 219 218 228 246 247 300 252
221 220 213 211 205 208 213 213 215 219 220 220 221 220 219 220 223 222 220 221 222 220 219 221 222 226 215 227 240 254 250 272
243 220 217 216 212 210 211 222 229 230 227 225 223 222 219 218 220 221 222 222 226 223 219 220 226 232 234 227 233 240 247 256
296 247 224 218 218 221 220 223 223 226 227 227 231 234 231 225 224 223 224 225 227 225 221 223 222 230 236 242 243 235 233 236
24 341 238 233 221 228 232 235 234 237 239 233 232 226 229 229 223 223 223 225 226 227 224 223 225 227 232 238 242 247 250 250
40 46 45 33 305 238 239 243 239 242 244 246 243 240 237 230 223 220 226 228 227 224 221 222 223 223 227 227 232 237 241 240
Height
786 791 796 800 803 807 812 816 820 823 825 828 832 834 837 839 841 844 846 848 851 852 854 856 858 859 860 861 862 863 864 865
787 792 796 802 805 809 813 817 821 824 827 830 833 835 837 840 842 844 847 850 852 854 855 857 859 860 861 862 863 864 865 866
788 792 796 801 806 809 814 818 822 825 828 831 833 838 839 840 844 845 847 850 852 854 856 858 860 861 861 862 863 864 864 865
787 791 794 799 804 809 815 820 823 827 829 831 835 837 840 842 844 845 847 850 853 855 857 858 860 862 862 862 863 863 863 864
787 791 794 797 801 806 812 817 822 825 829 831 834 836 838 841 843 845 848 850 853 854 855 858 859 860 861 861 862 862 862 862
787 791 794 797 800 804 808 812 816 821 825 829 831 833 835 838 841 844 847 848 851 853 854 855 857 858 859 860 860 861 861 861
784 789 792 795 798 802 805 810 813 817 822 825 828 831 833 835 838 841 844 846 848 850 851 852 854 855 856 857 858 859 859 859
779 784 788 792 795 799 803 807 810 814 818 821 824 828 831 833 835 838 841 843 845 847 848 850 851 853 853 854 855 856 856 857
772 778 784 788 792 796 801 804 807 811 814 818 820 824 827 830 833 835 837 840 843 845 847 848 849 850 851 852 852 853 853 854
768 772 777 783 789 793 797 800 803 806 810 813 815 818 823 827 829 831 833 836 839 841 843 845 847 848 848 848 849 850 850 851
763 767 769 775 782 788 792 795 799 802 805 808 811 813 817 821 824 826 829 832 835 837 840 841 843 844 845 846 846 846 846 847
757 762 765 770 776 782 787 790 794 797 800 803 807 809 812 815 819 822 825 828 830 833 835 837 839 840 841 841 842 842 842 842
749 755 760 766 770 774 779 781 786 791 794 798 801 804 806 809 813 817 820 822 824 827 831 834 836 838 839 838 836 836 836 836
745 748 753 758 763 768 772 776 779 784 788 791 793 796 799 803 805 809 813 816 819 822 825 827 830 832 833 833 830 827 827 829
739 743 747 751 757 764 769 772 775 777 779 782 785 790 794 797 800 802 806 809 812 815 817 820 821 824 827 828 825 824 820 822
733 738 742 746 752 757 759 760 760 763 769 773 777 781 784 788 793 796 799 802 805 809 812 814 818 817 820 821 821 821 821 819
730 732 737 742 747 750 753 755 758 763 765 767 769 773 775 778 783 788 791 795 800 803 805 808 811 813 812 814 817 818 820 821
730 729 729 736 742 746 747 749 753 758 760 762 767 771 774 774 778 781 785 789 793 795 798 801 803 806 809 809 810 809 810 814
733 729 730 731 735 741 745 748 753 754 754 755 759 765 767 767 771 775 777 780 783 787 790 792 795 797 800 803 804 806 806 806
746 741 738 736 736 736 742 744 746 748 749 751 752 754 756 760 763 766 767 773 773 778 780 782 785 788 791 793 796 798 801 803